カタログに戻る

STARLINK-2082

運用中通信VLEO
NORAD 47367·PAYLOAD·🇺🇸 United States

打ち上げ Jan 20, 2021 から Cape Canaveral Space Force Station

Loading…

次のパス (今後24時間)

TLE

最新Source: CelesTrak SupGP

元期: Sep 14, 2026, 21:16 UTC

1 47367C 21005U   26257.88659722  .00046232  00000+0  14865-2 0  2573
2 47367  53.1568 262.1888 0001359  98.5876  71.7346 15.31683052    16

AllMySatでSTARLINK-2082をリアルタイム追跡

Download on the App Store